Regional Weather Roundup
Issued by NWS

Home | Current Version | Previous Version | Text Only | Print | Product List | Glossary Off
Versions: 1 2 3 4 5 6 7 8 9 10 11 12 13 14 15 16 17 18 19 20 21 22 23 24 25 26 27 28 29 30 31 32 33 34 35 36 37 38 39 40 41 42 43 44 45 46 47 48 49 50

067
ASUS43 KMPX 302001
RWRMN
WEATHER ROUNDUP FOR MINNESOTA
NATIONAL WEATHER SERVICE TWIN CITIES/CHANHASSEN MN
300 PM CDT MON MAY 30 2016


NOTE: "FAIR" INDICATES FEW OR NO CLOUDS BELOW 12,000 FEET WITH NO
SIGNIFICANT WEATHER AND/OR OBSTRUCTIONS TO VISIBILITY. N/A MEANS
CURRENT SKY AND/OR WEATHER CONDITIONS ARE NOT AVAILABLE.

MNZ060>063-068>070-302100-
   Twin Cities Metro

CITY           SKY/WX    TMP DP  RH WIND       PRES   REMARKS
TWIN CITIES    MOSUNNY   82  51  34 S8        29.96F
ST PAUL        SUNNY     81  52  36 S7        29.96F
CRYSTAL        SUNNY     82  48  30 S6        29.94F
BLAINE         PTSUNNY   82  48  30 SW9       29.96F
EDEN PRAIRIE   SUNNY     82  52  35 S12       29.95F
SOUTH ST PAUL  SUNNY     81  51  34 S8        29.96F
LAKE ELMO      FAIR      81  55  41 SW5       29.98F
$$
MNZ001>005-007-008-013>017-022>024-027-028-302100-
   Northwest Minnesota

CITY           SKY/WX    TMP DP  RH WIND       PRES   REMARKS
BEMIDJI        SUNNY     80  46  30 E6        29.91F
HALLOCK        MOSUNNY   81  45  28 SE9       29.86F
ROSEAU         SUNNY     77  52  41 SW3       29.90F
WARROAD        SUNNY     66  59  77 NE13      29.93F
THIEF RVR FALL SUNNY     77  48  36 E7        29.90F
CROOKSTON      SUNNY     81  54  39 SE6       29.87F
FOSSTON        SUNNY     81  50  34 W3        29.90F
DETROIT LAKES  MOSUNNY   81  48  32 S13G20    29.91F
MOORHEAD       MOSUNNY   84  46  26 SE8       29.85F
PARK RAPIDS    PTSUNNY   78  50  37 SW5       29.91F
MAHNOMEN       FAIR      78  53  40 W3        29.89F
$$
MNZ006-009>011-018-025>026-302100-
   North Central Minnesota

CITY           SKY/WX    TMP DP  RH WIND       PRES   REMARKS
BAUDETTE       SUNNY     78  46  32 N7        29.92F
FLAG ISLAND    MOSUNNY   68  50  52 E5        29.93F
INTL FALLS     PTSUNNY   74  53  48 N9        29.95S
WASKISH        MOSUNNY   77  46  33 SW6       29.93F
BIG FORK       CLOUDY    75  43  31 CALM      29.95S
LONGVILLE      MOSUNNY   75  52  43 SE10      29.94F
GRAND RAPIDS   SUNNY     77  43  29 W5        29.96
CRANE LAKE     MOSUNNY   72  48  43 N8        29.97S
ORR            MOSUNNY   73  41  31 CALM      29.93S
COOK           SUNNY     73  45  35 CALM      29.96S
WALKER         FAIR      76  50  40 E8        29.92F
$$
MNZ012-019>021-037-302100-
   Northeast Minnesota

CITY           SKY/WX    TMP DP  RH WIND       PRES   REMARKS
DULUTH         MOSUNNY   80  45  28 N7        29.95F
ELY            MOSUNNY   72  45  37 N6G17     29.97S
HIBBING        MOSUNNY   74  41  30 VRB6      29.95F
EVELETH        PTSUNNY   75  43  31 W7        29.97F
DULUTH HARBOR  MOSUNNY   66  54  63 E9        29.94S
TWO HARBORS    MOSUNNY   79  52  38 N5        29.93S
SILVER BAY     MOSUNNY   79  45  29 NW7       29.93S
GRAND MARAIS     N/A     78  46  32 VRB7G23   29.91S
G MARAIS ARPRT MOSUNNY   70  45  40 NW8G20    29.97S
$$
MNZ029>031-032-039>041-046>048-054>057-064-302100-
   West Central Minnesota

CITY           SKY/WX    TMP DP  RH WIND       PRES   REMARKS
FERGUS FALLS   CLOUDY    82  46  28 S12G18    29.84F
WHEATON        MOSUNNY   88  54  31 S9        29.87F
MORRIS         MOSUNNY   81  55  41 S10G16    29.88F
ALEXANDRIA     SUNNY     80  49  33 S14       29.94F
ELBOW LAKE     FAIR      82  49  32 SE16G25   29.89F
WADENA         CLOUDY    81  48  32 SW9       29.92F
GLENWOOD       CLOUDY    79  54  41 SE14      29.94F
APPLETON       CLOUDY    84  48  28 S10G21    29.87F
ORTONVILLE     CLOUDY    84  52  32 S9        29.87F
MADISON        MOSUNNY   84  48  28 S15G21    29.88F
WILLMAR        FAIR      82  54  36 SE9       29.93F
$$
MNZ033>034-036-042>043-049>051-058-059-302100-
   Central Minnesota

CITY           SKY/WX    TMP DP  RH WIND       PRES   REMARKS
ST CLOUD       SUNNY     81  51  35 S14       29.95F
SAUK CENTRE    FAIR      79  52  38 S15G23    29.94F
PAYNESVILLE    MOSUNNY   81  49  32 SE9G17    29.94F
AITKIN         MOSUNNY   82  43  24 S7        29.93S
PINE RIVER     MOSUNNY   81  54  39 CALM      29.96S
BRAINERD       MOSUNNY   80  50  34 S12       29.94F
STAPLES        CLOUDY    79  46  31 S13       29.93F
LONG PRAIRIE   FAIR      79  50  36 SE12      29.94F
LITTLE FALLS   MOSUNNY   81  46  30 S6        29.94F
LITCHFIELD     SUNNY     81  52  36 S9G17     29.95F
BUFFALO        SUNNY     80  51  36 S7        29.97F
MAPLE LAKE     SUNNY     81  58  45 S5        29.97F
HUTCHINSON     SUNNY     81  54  39 SE8       29.96F
$$
MNZ037-044-045-052-053-302100-
   East Central Minnesota

CITY           SKY/WX    TMP DP  RH WIND       PRES   REMARKS
PRINCETON      SUNNY     82  52  34 S5        29.95F
MORA           SUNNY     79  50  36 S8        29.97S
CAMBRIDGE        N/A     82  57  42 S7        29.94F
RUSH CITY      SUNNY     80  50  34 SW3       29.96S
MOOSE LAKE     MOSUNNY   81  48  32 W7        29.93F
HINCKLEY       FAIR      81  54  39 SW6       29.95F
CLOQUET        MOSUNNY   79  41  25 W6        29.95F
MCGREGOR       MOSUNNY   79  45  29 CALM      29.95S
$$
MNZ071>073-080-081-089-090-097-098-302100-
   Southwest Minnesota

CITY           SKY/WX    TMP DP  RH WIND       PRES   REMARKS
MONTEVIDEO     SUNNY     88  54  31 SW13      29.91F
GRANITE FALLS  SUNNY     84  52  32 SE14G24   29.91F
CANBY          MOSUNNY   84  56  37 S14G20    29.90F
MARSHALL       MOSUNNY   80  56  43 S20       29.90F
REDWOOD FALLS  SUNNY     83  52  34 S20G28    29.92F
OLIVIA         MOSUNNY   75  48  38 SE12G18   29.92F
PIPESTONE      MOSUNNY   81  57  44 S13       29.92F
WINDOM         SUNNY     81  54  39 CALM      29.94F
WORTHINGTON    CLOUDY    80  58  46 S15       29.93F
JACKSON        MOSUNNY   81  52  36 S12G18    29.95F
TRACY          MOSUNNY   81  56  43 S12G21    29.92F
SLAYTON        PTSUNNY   81  51  34 SE17G23   29.93F
$$
MNZ065>067-074>077-082>085-091>093-302100-
   South Central Minnesota

CITY           SKY/WX    TMP DP  RH WIND       PRES   REMARKS
MANKATO        SUNNY     82  46  28 SE12      29.95F
NEW ULM        SUNNY     81  52  36 SE12      29.93F
ST JAMES       SUNNY     77  50  38 SE10G18   29.95F
FAIRMONT       MOSUNNY   81  55  41 SE13G21   29.95F
GLENCOE        SUNNY     83  55  37 S6        29.95F
FARIBAULT      SUNNY     81  52  36 SE5       29.98F
OWATONNA       SUNNY     82  45  26 S6        29.98F
WASECA         SUNNY     82  46  28 S9G18     29.98F
ALBERT LEA     SUNNY     81  45  28 S9        29.98F
$$
MNZ078>079-086>088-094>096-302100-
   Southeast Minnesota

CITY           SKY/WX    TMP DP  RH WIND       PRES   REMARKS
ROCHESTER      MOSUNNY   79  52  38 E5        30.00F
RED WING       SUNNY     82  46  28 CALM      29.96F
STANTON        SUNNY     82  48  29 S6        29.96F
DODGE CENTER   SUNNY     82  43  24 SE12      29.99F
WINONA         SUNNY     81  48  32 SW5       29.98F
AUSTIN         SUNNY     81  50  34 SE7       29.98F
PRESTON        SUNNY     79  46  31 S6        30.01S
$$
ABBREVIATIONS USED IN REMARKS
   TC - TEMPERATURES IN CELSIUS
  WCI - WIND CHILL INDEX
   HX - HEAT INDEX
  VSB - VISIBILITY
$$




USA.gov is the U.S. government's official web portal to all federal, state and local government web resources and services.